DW0494 Weather Reports


Display with metric or nautical units.
time (UTC)temp
F
wind
direction
speed
MPH
gust
MPH
rain 1hr
in
rain 24hr
in
rain mn
in
humidity
%
barometer
mb
20260901185904 79 62 0.0 1.0 0.00 0.00 0.00 73 1018.9
20260901185404 79 68 0.0 1.0 0.00 0.00 0.00 74 1018.9
20260901184903 80 69 1.0 1.0 0.00 0.00 0.00 73 1018.9
20260901184404 80 69 0.0 2.0 0.00 0.00 0.00 73 1018.8
20260901183904 80 69 0.0 2.0 0.00 0.00 0.00 73 1018.6
20260901183403 80 44 1.0 2.0 0.00 0.00 0.00 73 1018.4
20260901182903 80 69 0.0 2.0 0.00 0.00 0.00 73 1018.4
20260901182403 80 69 1.0 2.0 0.00 0.00 0.00 73 1018.4
20260901181903 80 88 0.0 1.0 0.00 0.00 0.00 73 1018.3
20260901181404 80 89 0.0 1.0 0.00 0.00 0.00 72 1018.1
20260901180904 80 89 0.0 1.0 0.00 0.00 0.00 72 1017.9
20260901180404 80 86 0.0 0.0 0.00 0.00 0.00 72 1017.9
20260901175904 80 86 0.0 0.0 0.00 0.00 0.00 71 1017.8
20260901175404 80 86 0.0 0.0 0.00 0.00 0.00 71 1017.8
20260901174904 80 88 0.0 1.0 0.00 0.00 0.00 71 1017.7
20260901174403 81 88 0.0 1.0 0.00 0.00 0.00 71 1017.7
20260901173903 81 88 0.0 0.0 0.00 0.00 0.00 71 1017.6
20260901173403 81 88 0.0 0.0 0.00 0.00 0.00 70 1017.4
20260901172903 81 88 0.0 1.0 0.00 0.00 0.00 70 1017.5
20260901172404 82 88 0.0 1.0 0.00 0.00 0.00 70 1017.5
20260901171904 82 90 0.0 2.0 0.00 0.00 0.00 70 1017.7
20260901171404 82 91 0.0 3.0 0.00 0.00 0.00 69 1017.6
20260901170903 82 50 0.0 3.0 0.00 0.00 0.00 69 1017.7
20260901165904 83 215 0.0 2.0 0.00 0.00 0.00 67 1017.7
20260901165404 84 175 0.0 3.0 0.00 0.00 0.00 67 1017.8
20260901164904 84 136 0.0 3.0 0.00 0.00 0.00 66 1017.8
20260901164403 85 165 0.0 3.0 0.00 0.00 0.00 65 1017.8
20260901163903 85 208 0.0 2.0 0.00 0.00 0.00 65 1017.6
20260901163403 86 120 0.0 2.0 0.00 0.00 0.00 65 1017.6
20260901162904 86 210 0.0 3.0 0.00 0.00 0.00 64 1017.7
20260901162403 86 222 2.0 7.0 0.00 0.00 0.00 64 1017.6
20260901161904 87 194 1.0 7.0 0.00 0.00 0.00 63 1017.5
20260901161403 87 209 2.0 7.0 0.00 0.00 0.00 62 1017.5
20260901160904 87 208 2.0 7.0 0.00 0.00 0.00 61 1017.5
20260901160403 88 213 2.0 7.0 0.00 0.00 0.00 60 1017.3
20260901154903 89 183 2.0 7.0 0.00 0.00 0.00 58 1017.3
20260901154403 89 178 2.0 7.0 0.00 0.00 0.00 58 1017.3
20260901153404 90 205 3.0 6.0 0.00 0.00 0.00 57 1017.3
20260901152904 90 208 3.0 6.0 0.00 0.00 0.00 58 1017.3
20260901152404 90 179 3.0 8.0 0.00 0.00 0.00 58 1017.3
20260901151905 90 208 3.0 8.0 0.00 0.00 0.00 58 1017.3
20260901151403 90 198 2.0 7.0 0.00 0.00 0.00 57 1017.4
20260901150904 91 193 3.0 7.0 0.00 0.00 0.00 57 1017.4
20260901150404 91 208 3.0 8.0 0.00 0.00 0.00 56 1017.3
20260901145903 91 210 3.0 8.0 0.00 0.00 0.00 55 1017.3
20260901144403 92 207 3.0 6.0 0.00 0.00 0.00 54 1017.3
20260901143903 92 196 3.0 6.0 0.00 0.00 0.00 53 1017.3
20260901143403 92 211 3.0 7.0 0.00 0.00 0.00 53 1017.3
20260901142903 92 191 1.0 7.0 0.00 0.00 0.00 54 1017.3
20260901141904 92 148 3.0 7.0 0.00 0.00 0.00 53 1017.3
20260901141404 93 205 3.0 8.0 0.00 0.00 0.00 53 1017.4
20260901135904 93 207 1.0 9.0 0.00 0.00 0.00 51 1017.3
20260901134904 93 215 3.0 7.0 0.00 0.00 0.00 52 1017.4
20260901133904 93 206 3.0 9.0 0.00 0.00 0.00 53 1017.5
20260901133404 93 201 3.0 9.0 0.00 0.00 0.00 52 1017.5
20260901132904 93 219 2.0 8.0 0.00 0.00 0.00 52 1017.6
20260901132404 93 213 3.0 8.0 0.00 0.00 0.00 52 1017.6
20260901131904 93 210 2.0 7.0 0.00 0.00 0.00 53 1017.7
20260901131404 92 229 2.0 7.0 0.00 0.00 0.00 53 1017.7
20260901130903 92 235 3.0 7.0 0.00 0.00 0.00 53 1017.7
20260901130404 92 213 2.0 7.0 0.00 0.00 0.00 53 1017.7
20260901125904 93 220 3.0 7.0 0.00 0.00 0.00 52 1017.8
20260901125404 93 225 2.0 8.0 0.00 0.00 0.00 52 1017.8
20260901124904 93 227 2.0 8.0 0.00 0.00 0.00 52 1017.9
20260901124404 93 211 3.0 8.0 0.00 0.00 0.00 52 1017.8
20260901123404 93 232 2.0 7.0 0.00 0.00 0.00 52 1017.9
20260901122904 92 209 2.0 7.0 0.00 0.00 0.00 52 1017.9
20260901122404 93 207 2.0 7.0 0.00 0.00 0.00 51 1018.0
20260901121904 93 220 2.0 9.0 0.00 0.00 0.00 51 1018.1
20260901121404 92 206 2.0 9.0 0.00 0.00 0.00 53 1018.2
20260901120904 92 232 3.0 9.0 0.00 0.00 0.00 52 1018.3
20260901120403 92 229 3.0 7.0 0.00 0.00 0.00 51 1018.4
20260901115903 92 223 2.0 8.0 0.00 0.00 0.00 52 1018.4
20260901115403 92 203 3.0 8.0 0.00 0.00 0.00 53 1018.4
20260901114903 92 223 3.0 7.0 0.00 0.00 0.00 53 1018.5
20260901114403 92 250 3.0 7.0 0.00 0.00 0.00 54 1018.4
20260901113903 91 245 2.0 7.0 0.00 0.00 0.00 56 1018.5
20260901112904 91 221 2.0 8.0 0.00 0.00 0.00 56 1018.5
20260901111904 91 228 3.0 6.0 0.00 0.00 0.00 57 1018.5
20260901111404 91 278 2.0 7.0 0.00 0.00 0.00 57 1018.6
20260901110904 92 255 2.0 7.0 0.00 0.00 0.00 57 1018.6
20260901110404 91 198 2.0 8.0 0.00 0.00 0.00 58 1018.6
20260901105404 91 212 2.0 8.0 0.00 0.00 0.00 59 1018.7
20260901104903 91 203 2.0 7.0 0.00 0.00 0.00 59 1018.7
20260901104404 91 172 2.0 7.0 0.00 0.00 0.00 58 1018.8
20260901102904 91 219 3.0 7.0 0.00 0.00 0.00 56 1018.8
20260901102404 91 237 2.0 7.0 0.00 0.00 0.00 56 1018.8
20260901101404 90 195 3.0 8.0 0.00 0.00 0.00 54 1019.0
20260901100904 91 243 3.0 8.0 0.00 0.00 0.00 54 1019.0
20260901100404 91 243 2.0 6.0 0.00 0.00 0.00 54 1019.1
20260901095403 91 259 3.0 7.0 0.00 0.00 0.00 54 1019.0
20260901094404 92 172 2.0 7.0 0.00 0.00 0.00 53 1019.0
20260901093904 92 204 2.0 7.0 0.00 0.00 0.00 53 1019.0
20260901093404 92 191 3.0 8.0 0.00 0.00 0.00 52 1018.9
20260901092904 92 134 2.0 8.0 0.00 0.00 0.00 50 1019.0
20260901092403 92 223 2.0 6.0 0.00 0.00 0.00 50 1019.0
20260901091904 91 214 2.0 5.0 0.00 0.00 0.00 53 1019.1
20260901091404 91 211 2.0 7.0 0.00 0.00 0.00 54 1019.1
20260901090904 90 205 1.0 7.0 0.00 0.00 0.00 54 1019.2
20260901090404 90 231 2.0 7.0 0.00 0.00 0.00 55 1019.2
20260901085403 90 248 1.0 7.0 0.00 0.00 0.00 55 1019.2
20260901084903 90 220 2.0 7.0 0.00 0.00 0.00 54 1019.1
20260901084404 89 231 1.0 5.0 0.00 0.00 0.00 57 1019.1
20260901083904 88 267 0.0 5.0 0.00 0.00 0.00 58 1019.1
20260901083404 88 326 2.0 5.0 0.00 0.00 0.00 57 1019.1
20260901082904 88 178 1.0 3.0 0.00 0.00 0.00 58 1019.1
20260901082404 87 272 0.0 3.0 0.00 0.00 0.00 59 1019.1
20260901081904 88 270 1.0 3.0 0.00 0.00 0.00 58 1019.1
20260901081404 87 243 1.0 3.0 0.00 0.00 0.00 60 1019.0
20260901080403 87 275 1.0 3.0 0.00 0.00 0.00 61 1019.2
20260901075903 87 285 1.0 3.0 0.00 0.00 0.00 62 1019.2
20260901075404 87 286 1.0 3.0 0.00 0.00 0.00 63 1019.1
20260901074403 89 198 1.0 3.0 0.00 0.00 0.00 61 1019.1
20260901073903 88 171 1.0 3.0 0.00 0.00 0.00 62 1019.1
20260901073404 87 206 1.0 2.0 0.00 0.00 0.00 65 1019.2
20260901072404 74 0 0.0 0.0 0.00 0.00 0.00 74 1019.1
20260901071403 74 0 0.0 0.0 0.00 0.00 0.00 74 1019.0
20260901070903 74 0 0.0 0.0 0.00 0.00 0.00 74 1018.9
20260901070404 74 0 0.0 0.0 0.00 0.00 0.00 74 1018.8
20260901065404 74 0 0.0 0.0 0.00 0.00 0.00 74 1018.8
20260901064903 74 0 0.0 0.0 0.00 0.00 0.00 74 1018.8
20260901064403 74 0 0.0 0.0 0.00 0.00 0.00 74 1018.8
20260901063903 74 0 0.0 0.0 0.00 0.00 0.00 74 1018.8
20260901063404 74 0 0.0 0.0 0.00 0.00 0.00 74 1018.6
20260901062904 74 0 0.0 0.0 0.00 0.00 0.00 74 1018.7
20260901062404 74 0 0.0 0.0 0.00 0.00 0.00 74 1018.7
20260901061904 74 0 0.0 0.0 0.00 0.00 0.00 74 1018.8
20260901061404 74 0 0.0 0.0 0.00 0.00 0.00 74 1018.8
20260901060404 74 0 0.0 0.0 0.00 0.00 0.00 74 1018.8
20260901055903 74 0 0.0 0.0 0.00 0.00 0.00 74 1019.0
20260901054904 74 0 0.0 0.0 0.00 0.00 0.00 74 1018.9
20260901054404 74 0 0.0 0.0 0.00 0.00 0.00 74 1018.9
20260901053403 74 0 0.0 0.0 0.00 0.00 0.00 74 1018.9
20260901052403 74 0 0.0 0.0 0.00 0.00 0.00 74 1018.9
20260901051903 74 0 0.0 0.0 0.00 0.00 0.00 74 1018.9
20260901051403 74 0 0.0 0.0 0.00 0.00 0.00 74 1018.9
20260901045904 74 0 0.0 0.0 0.00 0.00 0.00 74 1018.8
20260901045404 74 0 0.0 0.0 0.00 0.00 0.00 74 1018.8
20260901044903 74 0 0.0 0.0 0.00 0.00 0.00 74 1018.7
20260901043903 74 0 0.0 0.0 0.00 0.00 0.00 74 1018.6
20260901043403 74 0 0.0 0.0 0.00 0.00 0.00 74 1018.5
20260901042403 74 0 0.0 0.0 0.00 0.00 0.00 74 1018.3
20260901041903 74 0 0.0 0.0 0.00 0.00 0.00 74 1018.3
20260901040904 74 0 0.0 0.0 0.00 0.00 0.00 74 1018.2
20260901040404 74 0 0.0 0.0 0.00 0.00 0.00 74 1018.1
20260901035403 74 0 0.0 0.0 0.00 0.00 0.00 74 1017.8
20260901034904 74 0 0.0 0.0 0.00 0.00 0.00 74 1017.9
20260901034404 74 0 0.0 0.0 0.00 0.00 0.00 74 1018.0
20260901033903 74 0 0.0 0.0 0.00 0.00 0.00 74 1017.9
20260901033403 74 0 0.0 1.0 0.00 0.00 0.00 74 1017.8
20260901032903 74 2 1.0 1.0 0.00 0.00 0.00 74 1017.8
20260901032404 74 52 1.0 2.0 0.00 0.00 0.00 74 1017.7
20260901031404 74 60 0.0 0.0 0.00 0.00 0.00 75 1017.9
20260901030904 74 60 0.0 0.0 0.00 0.00 0.00 74 1017.9
20260901030403 75 60 0.0 0.0 0.00 0.00 0.00 74 1017.9
20260901025904 74 60 0.0 0.0 0.00 0.00 0.00 75 1018.0
20260901025404 74 60 0.0 0.0 0.00 0.00 0.00 75 1018.1
20260901024904 74 60 0.0 1.0 0.00 0.00 0.00 76 1018.1
20260901024404 74 60 0.0 1.0 0.00 0.00 0.00 76 1018.0
20260901023403 75 60 0.0 1.0 0.00 0.00 0.00 75 1018.1
20260901022404 75 60 1.0 2.0 0.00 0.00 0.00 76 1018.0
20260901021904 74 60 1.0 2.0 0.00 0.00 0.00 76 1018.0
20260901021404 75 63 1.0 2.0 0.00 0.00 0.00 76 1018.0
20260901020904 75 65 1.0 2.0 0.00 0.00 0.00 76 1018.1
20260901020404 75 61 1.0 2.0 0.00 0.00 0.00 75 1018.1
20260901015404 75 49 0.0 2.0 0.00 0.00 0.00 76 1018.3
20260901014403 75 53 1.0 2.0 0.00 0.00 0.00 77 1018.3
20260901013904 75 39 1.0 2.0 0.00 0.00 0.00 77 1018.4
20260901013403 75 44 1.0 3.0 0.00 0.00 0.00 77 1018.4
20260901012403 75 58 1.0 3.0 0.00 0.00 0.00 77 1018.5
20260901011904 74 45 2.0 3.0 0.00 0.00 0.00 77 1018.5
20260901011403 74 57 1.0 1.0 0.00 0.00 0.00 78 1018.5
20260901010903 74 59 0.0 1.0 0.00 0.00 0.00 79 1018.6
20260901010403 74 59 0.0 1.0 0.00 0.00 0.00 80 1018.7
20260901005403 74 59 0.0 0.0 0.00 0.00 0.00 80 1018.7
20260901004904 74 59 0.0 0.0 0.00 0.00 0.00 79 1018.7
20260901004404 74 59 0.0 0.0 0.00 0.00 0.00 80 1018.7
20260901003904 74 59 0.0 0.0 0.00 0.00 0.00 80 1018.7
20260901003404 74 59 0.0 0.0 0.00 0.00 0.00 79 1018.8
20260901002904 74 59 0.0 0.0 0.00 0.00 0.00 79 1018.8
20260901001903 74 59 0.0 1.0 0.00 0.00 0.00 79 1018.6
20260901001404 74 59 0.0 2.0 0.00 0.00 0.00 79 1018.5
20260901000904 74 59 0.0 2.0 0.00 0.00 0.00 80 1018.4
20260901000405 74 60 1.0 2.0 0.00 0.00 0.00 79 1018.2
20260831235903 74 42 0.0 0.0 0.00 0.00 0.00 78 1018.2
20260831235403 74 42 0.0 0.0 0.00 0.00 0.00 79 1018.2
20260831234403 75 42 0.0 1.0 0.00 0.00 0.00 78 1018.3
20260831233404 75 42 0.0 2.0 0.00 0.00 0.00 78 1018.5
20260831232904 75 47 1.0 2.0 0.00 0.00 0.00 78 1018.5
20260831232404 75 72 0.0 1.0 0.00 0.00 0.00 78 1018.5
20260831231904 75 72 0.0 1.0 0.00 0.00 0.00 78 1018.6
20260831231404 75 72 0.0 1.0 0.00 0.00 0.00 79 1018.5
20260831230404 75 84 0.0 1.0 0.00 0.00 0.00 79 1018.6
20260831225903 75 84 0.0 1.0 0.00 0.00 0.00 79 1018.7
20260831225403 74 84 0.0 1.0 0.00 0.00 0.00 79 1018.8
20260831224904 74 84 0.0 1.0 0.00 0.00 0.00 79 1018.9
20260831223904 75 84 0.0 0.0 0.00 0.00 0.00 78 1018.8
20260831223404 75 84 0.0 0.0 0.00 0.00 0.00 78 1018.7
20260831222903 75 84 0.0 0.0 0.00 0.00 0.00 78 1018.7
20260831222403 75 84 0.0 1.0 0.00 0.00 0.00 78 1018.6
20260831221903 75 84 0.0 1.0 0.00 0.00 0.00 78 1018.6
20260831220404 75 84 0.0 0.0 0.00 0.00 0.00 77 1018.8
20260831215904 75 84 0.0 0.0 0.00 0.00 0.00 77 1018.9
20260831215403 75 84 0.0 0.0 0.00 0.00 0.00 77 1018.9
20260831214903 75 84 0.0 0.0 0.00 0.00 0.00 77 1018.9
20260831214403 75 84 0.0 0.0 0.00 0.00 0.00 77 1018.9
20260831213404 75 84 0.0 1.0 0.00 0.00 0.00 77 1019.0
20260831212904 76 84 0.0 1.0 0.00 0.00 0.00 76 1019.0
20260831212404 76 84 0.0 1.0 0.00 0.00 0.00 76 1018.9
20260831211903 76 84 0.0 1.0 0.00 0.00 0.00 76 1018.9
20260831211403 76 84 0.0 2.0 0.00 0.00 0.00 76 1019.0
20260831210904 76 84 1.0 2.0 0.00 0.00 0.00 76 1019.0
20260831205404 76 101 0.0 0.0 0.00 0.00 0.00 76 1019.0
20260831204404 76 101 0.0 0.0 0.00 0.00 0.00 75 1019.0
20260831203903 76 101 0.0 0.0 0.00 0.00 0.00 75 1019.0
20260831203403 76 101 0.0 0.0 0.00 0.00 0.00 75 1019.1
20260831202904 76 101 0.0 0.0 0.00 0.00 0.00 75 1019.2
20260831202404 76 101 0.0 0.0 0.00 0.00 0.00 75 1019.1
20260831201403 76 101 0.0 0.0 0.00 0.00 0.00 74 1019.0
20260831200903 76 101 0.0 1.0 0.00 0.00 0.00 74 1018.9
20260831200404 76 101 0.0 1.0 0.00 0.00 0.00 75 1018.8
20260831195904 76 101 0.0 0.0 0.00 0.00 0.00 75 1018.7
20260831195403 76 101 0.0 0.0 0.00 0.00 0.00 75 1018.8
20260831194904 76 101 0.0 0.0 0.00 0.00 0.00 75 1018.8
20260831194404 76 101 0.0 1.0 0.00 0.00 0.00 75 1018.7
20260831193904 76 101 0.0 1.0 0.00 0.00 0.00 75 1018.7
20260831193403 76 101 0.0 1.0 0.00 0.00 0.00 75 1018.6
20260831192904 76 101 0.0 1.0 0.00 0.00 0.00 75 1018.5
20260831192404 76 101 0.0 1.0 0.00 0.00 0.00 75 1018.6
20260831191904 76 101 0.0 0.0 0.00 0.00 0.00 75 1018.6
20260831191404 77 101 0.0 0.0 0.00 0.00 0.00 74 1018.5